Change the Weather History Date:

Tuesday, December 3, 2013

  Actual Average (KWRL) Record (KWRL)
Temperature  
Mean Temperature 8 °F 21 °F  
Max Temperature 19 °F 34 °F 63 °F (1998)
Min Temperature -4 °F 8 °F -20 °F (1978)
Degree Days  
Heating Degree Days 58 44  
Month to date heating degree days 131  
Since 1 July heating degree days 2023  
Cooling Degree Days 0 0  
Month to date cooling degree days 0  
Year to date cooling degree days 535  
Moisture  
Dew Point 1 °F    
Average Humidity 87    
Maximum Humidity 100    
Minimum Humidity 78    
Precipitation  
Precipitation 0.00 in 0.01 in 0.10 in (1964)
Month to date precipitation 0.03  
Year to date precipitation 7.37  
Sea Level Pressure  
Sea Level Pressure 29.65 in    
Wind  
Wind Speed 40 mph (NW)    
Max Wind Speed 45 mph    
Max Gust Speed 52 mph    
T = Trace of Precipitation, MM = Missing Value Source: NWS Daily Summary

Daily Weather History Graph

Daily Weather History Graph

Search for Another Location

Airport or City:

Trip Planner

Search our weather history database for the weather conditions in past years. The results will help you decide how hot, cold, wet, or windy it might be!

Date:

Astronomy

Dec. 03, 2013 Rise Set
Actual Time 7:28 AM MST 4:37 PM MST
Civil Twilight 6:56 AM MST 5:09 PM MST
Nautical Twilight 6:20 AM MST 5:45 PM MST
Astronomical Twilight 5:45 AM MST 6:19 PM MST
Moon 8:00 AM MST 5:44 PM MST
Length of Visible Light 10h 13m
Length of Day
9h 08m
New Moon, 1% of the Moon is Illuminated
Dec 3
New Moon
Dec 9
First Quarter
Dec 17
Full
Dec 25
Last Quarter
Jan 1
New

Hourly Weather History & Observations

Time (MST) Temp. Windchill Dew Point Humidity Pressure Visibility Wind Dir Wind Speed Gust Speed Precip Events Conditions
12:15 AM 19.4 °F - 19.4 °F 100% 29.54 in - North - - N/A   Overcast
12:35 AM 19.4 °F - 17.6 °F 93% 29.54 in - North - - N/A   Overcast
12:55 AM 17.6 °F - 15.8 °F 93% 29.54 in - North - - N/A   Overcast
1:15 AM 17.6 °F - 15.8 °F 93% 29.55 in - North - - N/A   Overcast
1:35 AM 17.6 °F - 15.8 °F 93% 29.56 in - North - - N/A   Overcast
1:55 AM 17.6 °F - 15.8 °F 93% 29.56 in - North - - N/A   Overcast
2:15 AM 17.6 °F - 15.8 °F 93% 29.57 in - North - - N/A   Overcast
2:35 AM 17.6 °F -3.8 °F 14.0 °F 86% 29.57 in - NW 38.0 mph - N/A   Overcast
2:55 AM 15.8 °F -7.3 °F 14.0 °F 93% 29.53 in - WNW 42.6 mph - N/A   Overcast
3:15 AM 15.8 °F -6.1 °F 14.0 °F 93% 29.56 in - WNW 36.8 mph - N/A   Overcast
3:35 AM 14.0 °F -10.2 °F 12.2 °F 93% 29.55 in - WNW 44.9 mph - N/A   Overcast
3:55 AM 14.0 °F -9.3 °F 10.4 °F 86% 29.57 in - WNW 40.3 mph - N/A   Overcast
4:15 AM 12.2 °F -12.1 °F 10.4 °F 92% 29.55 in - NW 41.4 mph - N/A   Overcast
4:35 AM 12.2 °F -12.8 °F 8.6 °F 85% 29.54 in - NW 44.9 mph 51.8 mph N/A   Overcast
4:55 AM 10.4 °F -14.3 °F 8.6 °F 92% 29.55 in - NW 40.3 mph - N/A   Overcast
5:15 AM 10.4 °F -14.3 °F 8.6 °F 92% 29.56 in - NW 40.3 mph - N/A   Overcast
5:35 AM 8.6 °F -17.1 °F 6.8 °F 92% 29.56 in - NW 41.4 mph - N/A   Overcast
5:55 AM 8.6 °F -17.8 °F 5.0 °F 85% 29.56 in - NW 44.9 mph - N/A   Overcast
6:15 AM 8.6 °F -16.8 °F 5.0 °F 85% 29.57 in - NW 40.3 mph - N/A   Overcast
6:35 AM 6.8 °F -19.3 °F 3.2 °F 85% 29.57 in - NW 40.3 mph - N/A   Overcast
6:55 AM 6.8 °F -18.8 °F 3.2 °F 85% 29.57 in - NW 38.0 mph - N/A   Overcast
7:15 AM 5.0 °F -21.9 °F 3.2 °F 92% 29.57 in - NW 40.3 mph - N/A   Overcast
7:35 AM 5.0 °F -22.9 °F 1.4 °F 85% 29.58 in - NW 44.9 mph - N/A   Overcast
7:55 AM 5.0 °F -22.1 °F 1.4 °F 85% 29.60 in - NW 41.4 mph - N/A   Overcast
8:15 AM 5.0 °F -21.9 °F 1.4 °F 85% 29.62 in - NW 40.3 mph - N/A   Overcast
8:35 AM 5.0 °F -21.9 °F 1.4 °F 85% 29.63 in - NW 40.3 mph - N/A   Overcast
8:55 AM 3.2 °F -24.1 °F 1.4 °F 92% 29.63 in - NW 39.1 mph - N/A   Unknown
9:15 AM 3.2 °F -23.8 °F 1.4 °F 92% 29.66 in - NW 38.0 mph - N/A   Unknown
9:35 AM 3.2 °F -23.8 °F -0.4 °F 85% 29.67 in - NW 38.0 mph - N/A   Unknown
9:55 AM 3.2 °F -23.5 °F -0.4 °F 85% 29.67 in - NW 36.8 mph - N/A   Unknown
10:15 AM 3.2 °F -23.2 °F -0.4 °F 85% 29.68 in - NW 35.7 mph - N/A   Unknown
10:35 AM 3.2 °F -23.5 °F -0.4 °F 85% 29.69 in - NW 36.8 mph - N/A   Unknown
10:55 AM 3.2 °F -23.8 °F -0.4 °F 85% 29.69 in - NW 38.0 mph - N/A   Overcast
11:15 AM 3.2 °F -23.5 °F -0.4 °F 85% 29.68 in - NW 36.8 mph - N/A   Overcast
11:35 AM 3.2 °F -23.2 °F -0.4 °F 85% 29.66 in - NW 35.7 mph - N/A   Overcast
11:55 AM 1.4 °F -25.7 °F -0.4 °F 92% 29.65 in - NW 35.7 mph - N/A   Overcast
12:15 PM 1.4 °F -25.7 °F -0.4 °F 92% 29.65 in - NW 35.7 mph - N/A   Overcast
12:35 PM 1.4 °F -25.7 °F -0.4 °F 92% 29.65 in - NW 35.7 mph - N/A   Overcast
12:55 PM 1.4 °F -26.0 °F -0.4 °F 92% 29.65 in - NW 36.8 mph - N/A   Overcast
1:15 PM 1.4 °F -26.9 °F -2.2 °F 85% 29.65 in - NW 40.3 mph - N/A   Overcast
1:35 PM 1.4 °F -26.6 °F -2.2 °F 85% 29.65 in - NW 39.1 mph - N/A   Overcast
1:55 PM 1.4 °F -26.0 °F -2.2 °F 85% 29.67 in - NW 36.8 mph - N/A   Overcast
2:15 PM 1.4 °F -25.7 °F -2.2 °F 85% 29.67 in - NW 35.7 mph - N/A   Overcast
2:35 PM 1.4 °F -26.6 °F -2.2 °F 85% 29.65 in - NW 39.1 mph - N/A   Overcast
2:55 PM 1.4 °F -26.6 °F -4.0 °F 78% 29.67 in - NW 39.1 mph - N/A   Overcast
3:15 PM 1.4 °F -26.9 °F -4.0 °F 78% 29.67 in - NW 40.3 mph - N/A   Overcast
3:35 PM -0.4 °F -30.5 °F -4.0 °F 85% 29.63 in - NW 44.9 mph - N/A   Overcast
3:55 PM -0.4 °F -29.4 °F -5.8 °F 78% 29.67 in - NW 40.3 mph - N/A   Overcast
4:15 PM -0.4 °F -29.1 °F -5.8 °F 78% 29.68 in - NW 39.1 mph - N/A   Overcast
4:35 PM -0.4 °F -28.5 °F -5.8 °F 78% 29.68 in - NW 36.8 mph - N/A   Overcast
4:55 PM -0.4 °F -28.8 °F -5.8 °F 78% 29.70 in - NW 38.0 mph - N/A   Overcast
5:15 PM -0.4 °F -29.1 °F -5.8 °F 78% 29.69 in - NW 39.1 mph - N/A   Overcast
5:35 PM -2.2 °F -32.5 °F -5.8 °F 85% 29.69 in - NW 42.6 mph - N/A   Overcast
5:55 PM -2.2 °F -32.2 °F -5.8 °F 85% 29.71 in - WNW 41.4 mph - N/A   Overcast
6:15 PM -2.2 °F -32.2 °F -5.8 °F 85% 29.72 in - NW 41.4 mph - N/A   Overcast
6:35 PM -2.2 °F -32.2 °F -5.8 °F 85% 29.72 in - NW 41.4 mph - N/A   Overcast
6:55 PM -4.0 °F -34.4 °F -7.6 °F 85% 29.72 in - NW 40.3 mph - N/A   Overcast
7:15 PM -4.0 °F -34.7 °F -7.6 °F 85% 29.72 in - NW 41.4 mph - N/A   Overcast
7:35 PM -4.0 °F -35.0 °F -7.6 °F 85% 29.72 in - NW 42.6 mph - N/A   Overcast
7:55 PM -4.0 °F -34.7 °F -7.6 °F 85% 29.72 in - NW 41.4 mph - N/A   Overcast
8:15 PM -4.0 °F -34.7 °F -7.6 °F 85% 29.72 in - NW 41.4 mph - N/A   Overcast
8:35 PM -4.0 °F -34.4 °F -7.6 °F 85% 29.72 in - NW 40.3 mph - N/A   Unknown
8:55 PM -4.0 °F -33.8 °F -7.6 °F 85% 29.73 in - NW 38.0 mph - N/A   Unknown
9:15 PM -4.0 °F -34.1 °F -7.6 °F 85% 29.73 in - NW 39.1 mph - N/A   Overcast
9:35 PM -4.0 °F -33.4 °F -7.6 °F 85% 29.74 in - NW 36.8 mph - N/A   Overcast
9:55 PM -4.0 °F -33.1 °F -7.6 °F 85% 29.74 in - NW 35.7 mph - N/A   Overcast
10:15 PM -4.0 °F -32.8 °F -7.6 °F 85% 29.75 in - NW 34.5 mph - N/A   Overcast
10:35 PM -4.0 °F -32.8 °F -7.6 °F 85% 29.75 in - NW 34.5 mph - N/A   Overcast
10:55 PM -4.0 °F -32.4 °F -7.6 °F 85% 29.74 in - NW 33.4 mph - N/A   Overcast
11:15 PM -4.0 °F -32.4 °F -7.6 °F 85% 29.75 in - NW 33.4 mph - N/A   Unknown
11:35 PM -4.0 °F -33.8 °F -7.6 °F 85% 29.74 in - NW 38.0 mph - N/A   Overcast
11:55 PM -4.0 °F -33.4 °F -7.6 °F 85% 29.74 in - NW 36.8 mph - N/A   Overcast